FENGYUN 1C DEB

Satellite information

Favourite Embed

Satellite Type and Status

DEBRISIN ORBIT

Key statistics

Satellite FENGYUN 1C DEB at a glance.

Uptime

9663

Days in orbit

Revolutions

≈ 14.0

Per day

Orbit

SSO

Sun Synchronous Orbit

Inclination

99.0

Latest

Satellite identification and parameters

Extended collection of information and parameters for FENGYUN 1C DEB.

Object identification

Identified? True

Debris? True

Object name: FENGYUN 1C DEB

International designator: 1999-025QG

Object number (NORAD): 30079

Object ID (CCSDS): 30079

Country: PEOPLES REPUBLIC OF CHINA (PRC)

Current information (Y/N): Y

RCS size: SMALL

Orbital parameters

Period: 102.802 minutes

Inclination: 99.0464 deg

SMA: 7269.332 km

Apoapsis: 954.965 km

Periapsis: 827.428 km

RAAN: 351.7212 deg

Eccentricy: 0.00877229

Argument of periapsis: 81.1119 deg

Mean anomaly: 69.6889 deg

Mean motion: 14.00751268 rev/day

Mean motion (dot): 0.00000347 rev/day2

B* drag term: 0.0002536356 1/REarth

Two-line elements (TLE)

Creation date: Oct. 23, 2025, 2:46 a.m.

Reference frame: TEME

Reference center: EARTH

Epoch: Oct. 22, 2025, 3:28 p.m. UTC

TLE line 0: 0 FENGYUN 1C DEB

TLE line 1: 1 30079U 99025QG 25295.64501307 .00000347 00000-0 25364-3 0 9990

TLE line 2: 2 30079 99.0464 351.7212 0087723 81.1119 69.6889 14.00751268958228

Live tracking on map

Real-time ground track for satellite FENGYUN 1C DEB.

In-orbit conjunctions

A list of the most updated potential collisions computed for object FENGYUN 1C DEB.

Target Orbit TCA Probability of collision Miss distance Type
FENGYUN 1C DEB SSO 2025-08-27 13:41:15 0.0001048539 104.0 (m) DEBRIS

Associated space launch

Chinese polar orbiting meteorological satellite

FENGYUN 1C DEB was lifted into orbit during the mission ‘Long March 4B | Feng Yun 1C’, on board a Long March 4B space rocket.

The launch took place on May 10, 1999, 1:33 a.m. from Launch Complex 7.

For more information about the launch, click the button.

Launch to space Long March 4B | Feng Yun 1C
Long March 4B | Feng Yun 1C

Agency: N/A

Status: Launch Successful

Launch date: May 10, 1999, 1:33 a.m. UTC

Rocket: Long March 4B

Launch pad: Launch Complex 7

Location: Taiyuan Satellite Launch Center, People's Republic of China

...

Latest news about this satellite

There are no fresh news available about this satellite. Check back as we update our databases every day.


Newsletter sign-up

Weekly statistics, charts and insights to help you stay on top of the space industry.